Regional Weather Roundup
Issued by NWS

Home | Current Version | Previous Version | Graphics & Text | Print | Product List | Glossary On
Versions: 1 2 3 4 5 6 7 8 9 10 11 12 13 14 15 16 17 18 19 20 21 22 23 24 25 26 27 28 29 30 31 32 33 34 35 36 37 38 39 40 41 42 43 44 45 46 47 48 49 50
000
ASUS45 KBOI 190510
RWRID
WEATHER ROUNDUP FOR IDAHO
NATIONAL WEATHER SERVICE BOISE ID
1100 PM MDT THU SEP 18 2014

NOTE: "FAIR" INDICATES FEW OR NO CLOUDS BELOW 12000 FEET
WITH NO SIGNIFICANT WEATHER AND/OR OBSTRUCTIONS TO VISIBILITY

IDZ012-014-190600-
SOUTHWEST IDAHO


CITY           SKY/WX    TMP DP  RH WIND       PRES   REMARKS
BOISE          CLEAR     70  45  40 NW3       29.85R
CALDWELL       CLEAR     68  43  40 NW12      29.86R
MOUNTAIN HOME  PTCLDY    69  42  37 NW8       29.84R
$$

IDZ016-017-190600-
SOUTHCENTRAL IDAHO


CITY           SKY/WX    TMP DP  RH WIND       PRES   REMARKS
BURLEY         PTCLDY    57  48  72 SW6       29.89R HAZE
JEROME         CLEAR     66  39  37 CALM      29.89S
TWIN FALLS     CLEAR     68  41  37 S12       29.90R HAZE
$$

IDZ019>023-190600-
SOUTHEAST IDAHO


CITY           SKY/WX    TMP DP  RH WIND       PRES   REMARKS
IDAHO FALLS    CLOUDY    66  50  56 S10       29.93R
POCATELLO      PTCLDY    62  55  77 CALM      29.91S
REXBURG        CLOUDY    64  48  56 S9        29.93R
$$

IDZ006-010-011-018-031-032-190600-
CENTRAL IDAHO MOUNTAINS


CITY           SKY/WX    TMP DP  RH WIND       PRES   REMARKS
MCCALL         MOCLDY    59  38  45 N3        29.95R
HAILEY         PTCLDY    57  39  51 W9        29.98R
STANLEY          N/A     47  35  63 SE6       30.05R
SALMON         CLEAR     55  46  71 S3        29.87R
CHALLIS        CLEAR     55  39  54 CALM      29.95R
$$

IDZ002-004-006-007-026-190600-
NORTHERN IDAHO


CITY           SKY/WX    TMP DP  RH WIND       PRES   REMARKS
LEWISTON       MOCLDY    72  50  45 NW8       29.85R
LOWELL           N/A     62  53  72 CALM      29.86R
COEUR D`ALENE  CLOUDY    66  48  52 SW9       29.81R
MULLAN PASS    LGT RAIN  49  45  86 SW10G23   29.96S
$$


USA.gov is the U.S. government's official web portal to all federal, state and local government web resources and services.